When you browse on this site, cookies collect data to enhance your experience and personalize the content and advertising you see.
Visit our Privacy Policy to learn more. By continuing to use the site, you agree to this use of cookies and data.
  • In Switzerland
  • List of Countries
  • For 7 days
  • Water Temperature
  • Weather Map
  • Weather Widgets
  • user-avatar
    Login

    Hourly Weather Chester

    Today, 15 December, Sunday

    Time Temperature Precipitation Wind Pressure Humidity
    00:00 +3°C° 0 mm 3 mps 735 mmHg 94%
    01:00 +3°C° 0.5 mm 4 mps 735 mmHg 90%
    02:00 +2°C° 0.5 mm 6 mps 735 mmHg 85%
    03:00 +2°C° 0.5 mm 7 mps 736 mmHg 81%
    04:00 +2°C° 0 mm 7 mps 736 mmHg 78%
    05:00 +2°C° 0 mm 7 mps 737 mmHg 76%
    06:00 +1°C° 0 mm 5 mps 738 mmHg 80%
    07:00 +2°C° 0.1 mm 5 mps 739 mmHg 80%
    08:00 +2°C° 0.1 mm 5 mps 740 mmHg 80%
    09:00 +2°C° 0.1 mm 5 mps 741 mmHg 80%
    10:00 +3°C° 0 mm 4 mps 741 mmHg 79%
    11:00 +4°C° 0 mm 3 mps 741 mmHg 77%
    12:00 +4°C° 0 mm 3 mps 742 mmHg 77%
    13:00 +4°C° 0.3 mm 3 mps 742 mmHg 81%
    14:00 +4°C° 0.3 mm 3 mps 742 mmHg 84%
    15:00 +4°C° 0.3 mm 4 mps 742 mmHg 87%
    16:00 +4°C° 0.1 mm 4 mps 742 mmHg 85%
    17:00 +4°C° 0.1 mm 4 mps 742 mmHg 83%
    18:00 +3°C° 0.1 mm 5 mps 742 mmHg 81%
    19:00 +3°C° 0.1 mm 5 mps 743 mmHg 81%
    20:00 +2°C° 0.1 mm 5 mps 743 mmHg 81%
    21:00 +2°C° 0.1 mm 5 mps 743 mmHg 81%
    22:00 +2°C° 0 mm 5 mps 743 mmHg 82%
    23:00 +3°C° 0 mm 5 mps 743 mmHg 83%

    Tomorrow, 16 December, Monday

    Time Temperature Precipitation Wind Pressure Humidity
    00:00 +3°C° 0 mm 5 mps 743 mmHg 84%
    01:00 +2°C° 0 mm 5 mps 743 mmHg 83%
    02:00 +2°C° 0 mm 5 mps 743 mmHg 83%
    03:00 +2°C° 0 mm 5 mps 743 mmHg 82%
    04:00 +2°C° 0 mm 5 mps 743 mmHg 81%
    05:00 +2°C° 0 mm 6 mps 744 mmHg 79%
    06:00 +2°C° 0 mm 6 mps 744 mmHg 78%
    07:00 +2°C° 0 mm 5 mps 745 mmHg 80%
    08:00 +3°C° 0 mm 4 mps 746 mmHg 82%
    09:00 +2°C° 0 mm 3 mps 747 mmHg 84%
    10:00 +3°C° 0 mm 3 mps 747 mmHg 83%
    11:00 +3°C° 0 mm 3 mps 747 mmHg 81%
    12:00 +4°C° 0 mm 3 mps 748 mmHg 80%
    13:00 +4°C° 0 mm 3 mps 748 mmHg 82%
    14:00 +4°C° 0 mm 3 mps 748 mmHg 83%
    15:00 +4°C° 0 mm 3 mps 748 mmHg 85%
    16:00 +3°C° 0 mm 3 mps 748 mmHg 86%
    17:00 +3°C° 0 mm 3 mps 748 mmHg 87%
    18:00 +2°C° 0 mm 3 mps 748 mmHg 89%
    19:00 +2°C° 0 mm 3 mps 748 mmHg 89%
    20:00 +3°C° 0 mm 2 mps 748 mmHg 89%
    21:00 +3°C° 0 mm 2 mps 748 mmHg 89%
    22:00 +3°C° 0 mm 2 mps 748 mmHg 89%
    23:00 +3°C° 0 mm 2 mps 748 mmHg 89%

    Day after tomorrow, 17 December, Tuesday

    Time Temperature Precipitation Wind Pressure Humidity
    00:00 +4°C° 0 mm 1 mps 749 mmHg 89%
    01:00 +4°C° 0 mm 1 mps 748 mmHg 89%
    02:00 +4°C° 0 mm 1 mps 748 mmHg 89%
    03:00 +3°C° 0 mm 1 mps 748 mmHg 89%
    04:00 +3°C° 0 mm 1 mps 748 mmHg 89%
    05:00 +3°C° 0 mm 1 mps 748 mmHg 88%
    06:00 +3°C° 0 mm 1 mps 747 mmHg 88%
    07:00 +4°C° 0 mm 1 mps 748 mmHg 88%
    08:00 +4°C° 0 mm 1 mps 748 mmHg 87%
    09:00 +4°C° 0 mm 1 mps 748 mmHg 87%
    10:00 +4°C° 0 mm 1 mps 748 mmHg 85%
    11:00 +5°C° 0 mm 1 mps 748 mmHg 82%
    12:00 +5°C° 0 mm 0 mps 748 mmHg 80%
    13:00 +5°C° 0 mm 0 mps 748 mmHg 81%
    14:00 +4°C° 0 mm 0 mps 748 mmHg 83%
    15:00 +4°C° 0 mm 0 mps 748 mmHg 84%
    16:00 +5°C° 0 mm 1 mps 748 mmHg 85%
    17:00 +4°C° 0 mm 1 mps 749 mmHg 86%
    18:00 +3°C° 0 mm 1 mps 749 mmHg 88%
    19:00 +3°C° 0.1 mm 1 mps 749 mmHg 88%
    20:00 +2°C° 0.1 mm 2 mps 750 mmHg 89%
    21:00 +2°C° 0.1 mm 2 mps 750 mmHg 89%
    22:00 +2°C° 0 mm 2 mps 750 mmHg 89%
    23:00 +2°C° 0 mm 2 mps 751 mmHg 89%

    18 December, Wednesday

    Time Temperature Precipitation Wind Pressure Humidity
    00:00 +1°C° 0 mm 2 mps 751 mmHg 89%
    01:00 +1°C° 0 mm 2 mps 751 mmHg 89%
    02:00 +1°C° 0 mm 2 mps 751 mmHg 89%
    03:00 +1°C° 0 mm 2 mps 752 mmHg 89%
    04:00 +1°C° 0 mm 2 mps 752 mmHg 90%
    05:00 +1°C° 0 mm 2 mps 752 mmHg 90%
    06:00 +2°C° 0 mm 2 mps 752 mmHg 90%
    07:00 +2°C° 0 mm 2 mps 752 mmHg 90%
    08:00 +1°C° 0 mm 3 mps 753 mmHg 90%
    09:00 +1°C° 0 mm 3 mps 753 mmHg 90%
    10:00 +2°C° 0 mm 3 mps 753 mmHg 86%
    11:00 +3°C° 0 mm 4 mps 753 mmHg 82%
    12:00 +4°C° 0 mm 4 mps 753 mmHg 78%
    13:00 +3°C° 0 mm 4 mps 752 mmHg 79%
    14:00 +2°C° 0 mm 5 mps 752 mmHg 80%
    15:00 +2°C° 0 mm 5 mps 751 mmHg 81%
    16:00 +2°C° 0 mm 5 mps 751 mmHg 83%
    17:00 +2°C° 0 mm 6 mps 750 mmHg 86%
    18:00 +1°C° 0 mm 6 mps 750 mmHg 89%
    19:00 +2°C° 0 mm 7 mps 750 mmHg 89%
    20:00 +2°C° 0 mm 7 mps 749 mmHg 89%
    21:00 +1°C° 0 mm 8 mps 749 mmHg 89%
    22:00 +1°C° 0 mm 8 mps 748 mmHg 86%
    23:00 +1°C° 0 mm 8 mps 747 mmHg 84%

    19 December, Thursday

    Time Temperature Precipitation Wind Pressure Humidity
    00:00 +1°C° 0 mm 8 mps 746 mmHg 81%
    01:00 +2°C° 0.1 mm 8 mps 745 mmHg 84%
    02:00 +2°C° 0.1 mm 8 mps 744 mmHg 87%
    03:00 +2°C° 0.1 mm 8 mps 743 mmHg 90%
    04:00 +3°C° 1.2 mm 9 mps 741 mmHg 90%
    05:00 +5°C° 1.2 mm 9 mps 740 mmHg 91%
    06:00 +5°C° 1.2 mm 9 mps 738 mmHg 91%
    07:00 +6°C° 0.2 mm 9 mps 738 mmHg 89%
    08:00 +6°C° 0.2 mm 9 mps 737 mmHg 87%
    09:00 +7°C° 0.2 mm 8 mps 737 mmHg 85%
    10:00 +8°C° 0.1 mm 7 mps 738 mmHg 83%
    11:00 +8°C° 0.1 mm 6 mps 739 mmHg 81%
    12:00 +8°C° 0.1 mm 5 mps 740 mmHg 78%
    13:00 +8°C° 0 mm 5 mps 741 mmHg 80%
    14:00 +7°C° 0 mm 4 mps 742 mmHg 81%
    15:00 +7°C° 0 mm 4 mps 742 mmHg 83%
    16:00 +6°C° 0 mm 4 mps 743 mmHg 86%
    17:00 +5°C° 0 mm 3 mps 743 mmHg 88%
    18:00 +5°C° 0 mm 3 mps 743 mmHg 91%
    19:00 +4°C° 0 mm 3 mps 743 mmHg 92%
    20:00 +4°C° 0 mm 3 mps 743 mmHg 93%
    21:00 +4°C° 0 mm 4 mps 743 mmHg 93%
    22:00 +4°C° 0 mm 4 mps 743 mmHg 94%
    23:00 +4°C° 0 mm 4 mps 743 mmHg 94%

    20 December, Friday

    Time Temperature Precipitation Wind Pressure Humidity
    00:00 +4°C° 0 mm 4 mps 743 mmHg 95%
    01:00 +4°C° 0 mm 3 mps 742 mmHg 95%
    02:00 +4°C° 0 mm 3 mps 742 mmHg 95%
    03:00 +4°C° 0 mm 3 mps 742 mmHg 95%
    04:00 +4°C° 0 mm 3 mps 742 mmHg 96%
    05:00 +4°C° 0 mm 3 mps 741 mmHg 96%
    06:00 +4°C° 0 mm 3 mps 741 mmHg 97%
    07:00 +4°C° 0 mm 3 mps 741 mmHg 96%
    08:00 +4°C° 0 mm 3 mps 741 mmHg 96%
    09:00 +5°C° 0 mm 3 mps 741 mmHg 95%
    10:00 +5°C° 0 mm 3 mps 741 mmHg 94%
    11:00 +7°C° 0 mm 3 mps 741 mmHg 92%
    12:00 +7°C° 0 mm 3 mps 741 mmHg 90%
    13:00 +7°C° 0 mm 3 mps 741 mmHg 90%
    14:00 +7°C° 0 mm 3 mps 741 mmHg 90%
    15:00 +7°C° 0 mm 3 mps 740 mmHg 90%
    16:00 +7°C° 0 mm 3 mps 741 mmHg 90%
    17:00 +7°C° 0 mm 3 mps 741 mmHg 91%
    18:00 +5°C° 0 mm 3 mps 741 mmHg 91%
    19:00 +5°C° 0 mm 3 mps 741 mmHg 92%
    20:00 +5°C° 0 mm 3 mps 741 mmHg 92%
    21:00 +6°C° 0 mm 2 mps 742 mmHg 93%
    22:00 +5°C° 0 mm 2 mps 742 mmHg 93%
    23:00 +5°C° 0 mm 2 mps 742 mmHg 94%
    Show more